Simultaneous Nadir Overpasses (SNOs) Predictions

Prediction of SNOs between GOES-15 and TERRA Satellite Orbit:

Table of predicted SNOs for the next 14.0 days since TLE Epoch: 7/5/2014
Index Date Time (GOES-15) GOES-15 Lat,Lon TERRA Lat,Lon Distance(km) Time Diff (sec)
1 07/05/2014 19:34:08 -0.02,-135.35 0.06,-135.62 30.61 80
2 07/07/2014 19:19:15 -0.02,-135.31 -0.60,-132.66 302.18 80
3 07/08/2014 07:43:18 -0.00,-135.29 -0.55,-137.84 289.57 80
4 07/10/2014 07:28:24 0.01,-135.24 0.07,-134.87 42.13 80
5 07/12/2014 07:16:10 0.01,-135.18 0.69,-131.90 373.05 80
6 07/12/2014 19:40:05 0.01,-135.18 0.39,-137.06 213.33 80
7 07/14/2014 19:25:10 0.00,-135.11 -0.19,-134.08 117.08 80
8 07/15/2014 07:49:13 -0.02,-135.09 -0.88,-139.27 475.10 80
9 07/16/2014 19:12:56 -0.01,-135.05 -0.84,-131.11 447.18 80
10 07/17/2014 07:36:58 -0.02,-135.02 -0.29,-136.30 144.98 80




NCC Satellite Simultaneous Nadir Overpasses (SNOs) Prediction Service
